Погода в Дханкуте

Непал     27°00′12″N   87°19′43″E
темп.,
°C
ветер,
м/с
пор.,
м/с
влажн.,
%
обл.,
%
осадки,
мм/ч
давл.,
гПа
погр.,
м
14 августа, вс
вс1423:45+21ююв1298100 7.8 100537
02:45+22ю1197100 6.0 100564
05:45+22ююз0199100 11.2 1006130
08:45+22юв2294100 14.6 1008108
11:45+26ю2271100 17.6 1006871
14:45+26ю217867 1.5 1004825
17:45+24ююв239072 3.8 1005200
20:45+22юв239597 3.8 1008104
15 августа, пн
пн1523:45+22св229399 7.3 100842
02:45+21ссв339357 1.3 100857
05:45+21всв229117 1.4 100848
08:45+24ююв227952 0.0 1010738
11:45+27ю227072 0.6 10081131
14:45+26ю327673 2.4 1006775
17:45+24ю228611 3.9 1007151
20:45+21вюв11945 0.3 100917
16 августа, вт
вт1623:45+21всв119231 0.4 100919
02:45+20св119172 0.0 100814
05:45+20всв119128 0.0 100816
08:45+24ю217842 0.0 1008674
11:45+26ююз327472 0.5 1007958
14:45+26ююз327852 2.1 1005751
17:45+24ююз228825 3.6 1004332
20:45+22ю009324 0.5 100711
17 августа, ср
ср1723:45+22ююв01908 1.3 100711
02:45+21ссв119167 0.1 100611
05:45+21ссв2291100 0.1 100718
08:45+25юз007475 0.1 1007525
11:45+27ююз3270100 0.8 10051110
14:45+26ююз328196 2.4 1003642
17:45+25ююз228786 3.8 100390
20:45+23вюв019099 1.8 100611
18 августа, чт
чт1823:45+22ссв119035 3.6 100611
02:45+22ссв229167 0.9 100429
05:45+22ссв2291100 1.4 100540
08:45+26сз017769 1.0 1006439
11:45+28ююз3268100 1.7 10041168
14:45+27ююз337799 3.0 1002696
17:45+24ю2288100 7.4 100344
20:45+23ссв1192100 6.7 100512